| time (UTC) | temp F | wind direction | speed MPH | gust MPH | rain 1hr in | rain 24hr in | rain mn in | humidity % | barometer mb |
| 20260504231526 | 73 | 296 | 3.0 | 11.0 | 0.00 | 0.00 | 0.00 | 36 | 1015.1 |
| 20260504231025 | 74 | 247 | 1.0 | 12.0 | 0.00 | 0.00 | 0.00 | 31 | 1015.0 |
| 20260504230521 | 75 | 282 | 4.0 | 11.0 | 0.00 | 0.00 | 0.00 | 29 | 1015.3 |
| 20260504230029 | 75 | 275 | 5.0 | 17.0 | 0.00 | 0.00 | 0.00 | 30 | 1015.0 |
| 20260504225530 | 76 | 250 | 8.0 | 23.0 | 0.00 | 0.00 | 0.00 | 27 | 1015.0 |
| 20260504225027 | 75 | 242 | 8.0 | 23.0 | 0.00 | 0.00 | 0.00 | 26 | 1014.6 |
| 20260504224523 | 77 | 253 | 11.0 | 18.0 | 0.00 | 0.00 | 0.00 | 25 | 1014.4 |
| 20260504224019 | 77 | 251 | 8.0 | 16.0 | 0.00 | 0.00 | 0.00 | 22 | 1014.3 |
| 20260504223519 | 79 | 206 | 5.0 | 12.0 | 0.00 | 0.00 | 0.00 | 21 | 1014.2 |
| 20260504223015 | 79 | 259 | 7.0 | 14.0 | 0.00 | 0.00 | 0.00 | 20 | 1014.2 |
| 20260504222531 | 79 | 287 | 5.0 | 13.0 | 0.00 | 0.00 | 0.00 | 20 | 1014.4 |
| 20260504222026 | 79 | 295 | 8.0 | 16.0 | 0.00 | 0.00 | 0.00 | 20 | 1014.4 |
| 20260504221521 | 80 | 266 | 9.0 | 15.0 | 0.00 | 0.00 | 0.00 | 18 | 1014.3 |
| 20260504221016 | 81 | 225 | 5.0 | 11.0 | 0.00 | 0.00 | 0.00 | 18 | 1014.1 |
| 20260504220531 | 81 | 260 | 5.0 | 14.0 | 0.00 | 0.00 | 0.00 | 19 | 1014.1 |
| 20260504220038 | 80 | 271 | 7.0 | 16.0 | 0.00 | 0.00 | 0.00 | 19 | 1014.0 |
| 20260504215522 | 81 | 276 | 4.0 | 15.0 | 0.00 | 0.00 | 0.00 | 19 | 1014.1 |
| 20260504215019 | 81 | 270 | 8.0 | 15.0 | 0.00 | 0.00 | 0.00 | 19 | 1014.1 |
| 20260504214514 | 82 | 285 | 5.0 | 12.0 | 0.00 | 0.00 | 0.00 | 18 | 1014.1 |
| 20260504214029 | 83 | 283 | 5.0 | 12.0 | 0.00 | 0.00 | 0.00 | 17 | 1014.1 |
| 20260504213524 | 84 | 285 | 5.0 | 12.0 | 0.00 | 0.00 | 0.00 | 16 | 1014.0 |
| 20260504213019 | 84 | 262 | 7.0 | 12.0 | 0.00 | 0.00 | 0.00 | 16 | 1013.9 |
| 20260504212514 | 83 | 6 | 2.0 | 12.0 | 0.00 | 0.00 | 0.00 | 16 | 1013.9 |
| 20260504212033 | 84 | 344 | 3.0 | 12.0 | 0.00 | 0.00 | 0.00 | 16 | 1013.7 |
| 20260504211529 | 85 | 282 | 3.0 | 10.0 | 0.00 | 0.00 | 0.00 | 16 | 1013.8 |
| 20260504211024 | 84 | 304 | 2.0 | 10.0 | 0.00 | 0.00 | 0.00 | 16 | 1013.7 |
| 20260504210520 | 84 | 283 | 1.0 | 13.0 | 0.00 | 0.00 | 0.00 | 16 | 1013.8 |
| 20260504210028 | 83 | 287 | 5.0 | 13.0 | 0.00 | 0.00 | 0.00 | 16 | 1014.0 |
| 20260504205529 | 84 | 257 | 6.0 | 13.0 | 0.00 | 0.00 | 0.00 | 15 | 1014.1 |
| 20260504205025 | 84 | 245 | 6.0 | 14.0 | 0.00 | 0.00 | 0.00 | 15 | 1014.1 |
| 20260504204525 | 83 | 214 | 5.0 | 14.0 | 0.00 | 0.00 | 0.00 | 16 | 1013.9 |
| 20260504204022 | 83 | 226 | 7.0 | 14.0 | 0.00 | 0.00 | 0.00 | 16 | 1014.0 |
| 20260504203518 | 83 | 257 | 5.0 | 14.0 | 0.00 | 0.00 | 0.00 | 15 | 1013.9 |
| 20260504203013 | 83 | 260 | 6.0 | 14.0 | 0.00 | 0.00 | 0.00 | 16 | 1014.0 |
| 20260504202530 | 83 | 256 | 5.0 | 13.0 | 0.00 | 0.00 | 0.00 | 15 | 1014.0 |
| 20260504202025 | 83 | 275 | 5.0 | 14.0 | 0.00 | 0.00 | 0.00 | 16 | 1013.9 |
| 20260504201520 | 84 | 244 | 8.0 | 14.0 | 0.00 | 0.00 | 0.00 | 15 | 1014.0 |
| 20260504201020 | 84 | 241 | 4.0 | 13.0 | 0.00 | 0.00 | 0.00 | 16 | 1014.0 |
| 20260504200516 | 83 | 239 | 5.0 | 13.0 | 0.00 | 0.00 | 0.00 | 16 | 1014.0 |
| 20260504200042 | 83 | 254 | 2.0 | 17.0 | 0.00 | 0.00 | 0.00 | 17 | 1014.3 |
| 20260504195522 | 83 | 286 | 5.0 | 17.0 | 0.00 | 0.00 | 0.00 | 17 | 1014.1 |
| 20260504195017 | 83 | 221 | 3.0 | 8.0 | 0.00 | 0.00 | 0.00 | 16 | 1014.1 |
| 20260504194533 | 83 | 228 | 4.0 | 12.0 | 0.00 | 0.00 | 0.00 | 16 | 1014.1 |
| 20260504194028 | 83 | 267 | 4.0 | 13.0 | 0.00 | 0.00 | 0.00 | 16 | 1014.2 |
| 20260504193523 | 82 | 214 | 3.0 | 13.0 | 0.00 | 0.00 | 0.00 | 16 | 1014.1 |
| 20260504193023 | 81 | 159 | 3.0 | 14.0 | 0.00 | 0.00 | 0.00 | 17 | 1014.0 |
| 20260504192519 | 81 | 196 | 5.0 | 14.0 | 0.00 | 0.00 | 0.00 | 18 | 1014.1 |
| 20260504192014 | 83 | 215 | 5.0 | 12.0 | 0.00 | 0.00 | 0.00 | 17 | 1014.3 |
| 20260504191529 | 82 | 214 | 6.0 | 10.0 | 0.00 | 0.00 | 0.00 | 18 | 1014.1 |
| 20260504191024 | 81 | 234 | 2.0 | 15.0 | 0.00 | 0.00 | 0.00 | 19 | 1014.3 |
| 20260504190520 | 81 | 135 | 4.0 | 15.0 | 0.00 | 0.00 | 0.00 | 19 | 1014.3 |
| 20260504190027 | 81 | 105 | 3.0 | 7.0 | 0.00 | 0.00 | 0.00 | 19 | 1014.2 |
| 20260504185532 | 82 | 244 | 2.0 | 11.0 | 0.00 | 0.00 | 0.00 | 19 | 1014.1 |
| 20260504185028 | 81 | 200 | 6.0 | 11.0 | 0.00 | 0.00 | 0.00 | 19 | 1014.6 |
| 20260504184524 | 80 | 212 | 4.0 | 12.0 | 0.00 | 0.00 | 0.00 | 19 | 1014.6 |
| 20260504184019 | 81 | 214 | 2.0 | 11.0 | 0.00 | 0.00 | 0.00 | 19 | 1014.6 |
| 20260504183516 | 80 | 209 | 5.0 | 13.0 | 0.00 | 0.00 | 0.00 | 19 | 1014.8 |
| 20260504182515 | 82 | 298 | 4.0 | 11.0 | 0.00 | 0.00 | 0.00 | 18 | 1014.8 |
| 20260504182015 | 81 | 250 | 5.0 | 11.0 | 0.00 | 0.00 | 0.00 | 18 | 1015.0 |
| 20260504181531 | 81 | 269 | 2.0 | 16.0 | 0.00 | 0.00 | 0.00 | 19 | 1014.9 |
| 20260504181026 | 80 | 239 | 7.0 | 16.0 | 0.00 | 0.00 | 0.00 | 19 | 1014.9 |
| 20260504180522 | 81 | 318 | 6.0 | 14.0 | 0.00 | 0.00 | 0.00 | 20 | 1015.0 |
| 20260504180030 | 80 | 277 | 5.0 | 12.0 | 0.00 | 0.00 | 0.00 | 21 | 1015.0 |
| 20260504175513 | 80 | 280 | 4.0 | 12.0 | 0.00 | 0.00 | 0.00 | 22 | 1014.9 |
| 20260504175028 | 80 | 231 | 6.0 | 11.0 | 0.00 | 0.00 | 0.00 | 21 | 1015.0 |
| 20260504174528 | 79 | 159 | 2.0 | 6.0 | 0.00 | 0.00 | 0.00 | 24 | 1015.0 |
| 20260504174024 | 80 | 187 | 3.0 | 6.0 | 0.00 | 0.00 | 0.00 | 23 | 1015.0 |
| 20260504173520 | 78 | 104 | 3.0 | 6.0 | 0.00 | 0.00 | 0.00 | 24 | 1015.0 |
| 20260504173016 | 79 | 148 | 1.0 | 8.0 | 0.00 | 0.00 | 0.00 | 24 | 1015.0 |
| 20260504172532 | 78 | 140 | 1.0 | 9.0 | 0.00 | 0.00 | 0.00 | 24 | 1015.0 |
| 20260504172027 | 78 | 98 | 4.0 | 11.0 | 0.00 | 0.00 | 0.00 | 25 | 1014.9 |
| 20260504171523 | 78 | 155 | 5.0 | 14.0 | 0.00 | 0.00 | 0.00 | 25 | 1015.0 |
| 20260504171023 | 77 | 105 | 7.0 | 14.0 | 0.00 | 0.00 | 0.00 | 25 | 1015.0 |
| 20260504170519 | 77 | 123 | 4.0 | 11.0 | 0.00 | 0.00 | 0.00 | 26 | 1015.0 |
| 20260504151012 | 74 | 141 | 3.0 | 9.0 | 0.00 | 0.00 | 0.00 | 32 | 1014.8 |
| 20260504150528 | 74 | 176 | 3.0 | 10.0 | 0.00 | 0.00 | 0.00 | 33 | 1015.0 |
| 20260504141026 | 72 | 102 | 2.0 | 5.0 | 0.00 | 0.00 | 0.00 | 33 | 1015.0 |
| 20260504140522 | 72 | 113 | 1.0 | 3.0 | 0.00 | 0.00 | 0.00 | 34 | 1014.8 |
| 20260504130513 | 71 | 140 | 2.0 | 9.0 | 0.00 | 0.00 | 0.00 | 34 | 1014.1 |
| 20260504110525 | 72 | 206 | 2.0 | 6.0 | 0.00 | 0.00 | 0.00 | 32 | 1013.5 |
| 20260504100528 | 73 | 206 | 3.0 | 13.0 | 0.00 | 0.00 | 0.00 | 32 | 1013.5 |
| 20260504081522 | 72 | 159 | 0.0 | 3.0 | 0.00 | 0.00 | 0.00 | 33 | 1013.2 |
| 20260504081022 | 72 | 159 | 1.0 | 3.0 | 0.00 | 0.00 | 0.00 | 33 | 1013.1 |
| 20260504080518 | 72 | 149 | 0.0 | 3.0 | 0.00 | 0.00 | 0.00 | 33 | 1013.1 |
| 20260504050521 | 76 | 238 | 4.0 | 12.0 | 0.00 | 0.00 | 0.00 | 27 | 1014.0 |
| 20260504045530 | 76 | 227 | 3.0 | 11.0 | 0.00 | 0.00 | 0.00 | 27 | 1014.0 |
| 20260504045026 | 76 | 235 | 3.0 | 11.0 | 0.00 | 0.00 | 0.00 | 26 | 1013.8 |
| 20260504044521 | 76 | 215 | 6.0 | 11.0 | 0.00 | 0.00 | 0.00 | 27 | 1013.9 |
| 20260504044017 | 76 | 213 | 2.0 | 6.0 | 0.00 | 0.00 | 0.00 | 27 | 1014.0 |
| 20260504043517 | 76 | 239 | 1.0 | 6.0 | 0.00 | 0.00 | 0.00 | 26 | 1014.0 |
| 20260504043013 | 76 | 230 | 0.0 | 3.0 | 0.00 | 0.00 | 0.00 | 26 | 1014.0 |
| 20260504042528 | 76 | 229 | 1.0 | 5.0 | 0.00 | 0.00 | 0.00 | 26 | 1013.9 |
| 20260504042024 | 76 | 131 | 2.0 | 7.0 | 0.00 | 0.00 | 0.00 | 26 | 1013.8 |
| 20260504041520 | 77 | 229 | 1.0 | 11.0 | 0.00 | 0.00 | 0.00 | 25 | 1013.9 |
| 20260504041016 | 77 | 221 | 1.0 | 11.0 | 0.00 | 0.00 | 0.00 | 25 | 1013.9 |
| 20260504040512 | 77 | 221 | 4.0 | 9.0 | 0.00 | 0.00 | 0.00 | 25 | 1014.0 |
| 20260504040040 | 77 | 227 | 2.0 | 11.0 | 0.00 | 0.00 | 0.00 | 24 | 1013.8 |
| 20260504035525 | 77 | 210 | 3.0 | 11.0 | 0.00 | 0.00 | 0.00 | 24 | 1013.5 |
| 20260504035022 | 77 | 208 | 4.0 | 11.0 | 0.00 | 0.00 | 0.00 | 24 | 1013.2 |
| 20260504034518 | 77 | 217 | 4.0 | 14.0 | 0.00 | 0.00 | 0.00 | 23 | 1013.1 |
| 20260504034012 | 78 | 217 | 7.0 | 16.0 | 0.00 | 0.00 | 0.00 | 23 | 1013.1 |
| 20260504033528 | 78 | 238 | 6.0 | 15.0 | 0.00 | 0.00 | 0.00 | 22 | 1013.0 |
| 20260504033025 | 78 | 262 | 7.0 | 18.0 | 0.00 | 0.00 | 0.00 | 22 | 1012.8 |
| 20260504032521 | 78 | 190 | 8.0 | 26.0 | 0.00 | 0.00 | 0.00 | 21 | 1012.8 |
| 20260504032020 | 78 | 211 | 6.0 | 26.0 | 0.00 | 0.00 | 0.00 | 21 | 1012.8 |
| 20260504031516 | 79 | 210 | 10.0 | 22.0 | 0.00 | 0.00 | 0.00 | 20 | 1012.7 |
| 20260504031011 | 79 | 26 | 10.0 | 20.0 | 0.00 | 0.00 | 0.00 | 20 | 1012.5 |
| 20260504030527 | 79 | 286 | 7.0 | 22.0 | 0.00 | 0.00 | 0.00 | 19 | 1012.3 |
| 20260504030035 | 79 | 266 | 8.0 | 20.0 | 0.00 | 0.00 | 0.00 | 19 | 1012.1 |
| 20260504025516 | 80 | 217 | 9.0 | 20.0 | 0.00 | 0.00 | 0.00 | 18 | 1012.1 |
| 20260504025012 | 80 | 221 | 7.0 | 19.0 | 0.00 | 0.00 | 0.00 | 18 | 1011.7 |
| 20260504024512 | 80 | 196 | 7.0 | 15.0 | 0.00 | 0.00 | 0.00 | 17 | 1011.7 |
| 20260504024027 | 80 | 217 | 9.0 | 15.0 | 0.00 | 0.00 | 0.00 | 17 | 1011.7 |
| 20260504023523 | 81 | 200 | 7.0 | 18.0 | 0.00 | 0.00 | 0.00 | 16 | 1011.6 |
| 20260504023019 | 81 | 219 | 7.0 | 18.0 | 0.00 | 0.00 | 0.00 | 16 | 1011.5 |
| 20260504022515 | 81 | 216 | 6.0 | 15.0 | 0.00 | 0.00 | 0.00 | 16 | 1011.4 |
| 20260504022031 | 81 | 243 | 6.0 | 15.0 | 0.00 | 0.00 | 0.00 | 16 | 1011.4 |
| 20260504021526 | 81 | 224 | 9.0 | 20.0 | 0.00 | 0.00 | 0.00 | 16 | 1011.3 |
| 20260504021026 | 82 | 250 | 7.0 | 20.0 | 0.00 | 0.00 | 0.00 | 15 | 1011.2 |
| 20260504020522 | 82 | 225 | 7.0 | 18.0 | 0.00 | 0.00 | 0.00 | 15 | 1011.2 |
| 20260504020029 | 82 | 226 | 7.0 | 20.0 | 0.00 | 0.00 | 0.00 | 15 | 1010.9 |
| 20260504015530 | 82 | 227 | 7.0 | 20.0 | 0.00 | 0.00 | 0.00 | 14 | 1011.1 |
| 20260504015026 | 83 | 213 | 6.0 | 19.0 | 0.00 | 0.00 | 0.00 | 14 | 1010.9 |
| 20260504014522 | 83 | 236 | 9.0 | 20.0 | 0.00 | 0.00 | 0.00 | 14 | 1010.8 |
| 20260504014017 | 83 | 225 | 11.0 | 20.0 | 0.00 | 0.00 | 0.00 | 13 | 1010.8 |
| 20260504013517 | 83 | 257 | 10.0 | 20.0 | 0.00 | 0.00 | 0.00 | 13 | 1010.9 |
| 20260504013032 | 84 | 229 | 11.0 | 20.0 | 0.00 | 0.00 | 0.00 | 13 | 1010.8 |
| 20260504012528 | 84 | 266 | 8.0 | 17.0 | 0.00 | 0.00 | 0.00 | 13 | 1010.8 |
| 20260504012023 | 84 | 191 | 10.0 | 17.0 | 0.00 | 0.00 | 0.00 | 12 | 1010.7 |
| 20260504011519 | 85 | 208 | 10.0 | 19.0 | 0.00 | 0.00 | 0.00 | 12 | 1010.7 |
| 20260504011016 | 85 | 186 | 9.0 | 19.0 | 0.00 | 0.00 | 0.00 | 12 | 1010.6 |
| 20260504010532 | 86 | 203 | 10.0 | 16.0 | 0.00 | 0.00 | 0.00 | 12 | 1010.9 |
| 20260504010039 | 86 | 234 | 5.0 | 14.0 | 0.00 | 0.00 | 0.00 | 11 | 1010.9 |
| 20260504005525 | 87 | 238 | 8.0 | 15.0 | 0.00 | 0.00 | 0.00 | 11 | 1011.0 |
| 20260504005021 | 87 | 208 | 7.0 | 16.0 | 0.00 | 0.00 | 0.00 | 11 | 1011.0 |
| 20260504004518 | 87 | 220 | 9.0 | 16.0 | 0.00 | 0.00 | 0.00 | 11 | 1011.1 |
| 20260504004013 | 87 | 208 | 10.0 | 16.0 | 0.00 | 0.00 | 0.00 | 11 | 1011.1 |
| 20260504003529 | 87 | 198 | 5.0 | 22.0 | 0.00 | 0.00 | 0.00 | 11 | 1011.1 |
| 20260504003025 | 87 | 219 | 7.0 | 22.0 | 0.00 | 0.00 | 0.00 | 11 | 1011.0 |
| 20260504002521 | 87 | 205 | 7.0 | 18.0 | 0.00 | 0.00 | 0.00 | 10 | 1010.9 |
| 20260504002021 | 88 | 206 | 7.0 | 18.0 | 0.00 | 0.00 | 0.00 | 11 | 1010.9 |
| 20260504001517 | 88 | 273 | 8.0 | 18.0 | 0.00 | 0.00 | 0.00 | 10 | 1010.9 |
| 20260504001013 | 88 | 183 | 8.0 | 22.0 | 0.00 | 0.00 | 0.00 | 10 | 1011.0 |
| 20260504000529 | 88 | 213 | 9.0 | 22.0 | 0.00 | 0.00 | 0.00 | 10 | 1010.7 |
| 20260504000037 | 88 | 235 | 12.0 | 20.0 | 0.00 | 0.00 | 0.00 | 10 | 1010.8 |
| 20260503235518 | 89 | 223 | 7.0 | 19.0 | 0.00 | 0.00 | 0.00 | 10 | 1010.8 |
| 20260503235014 | 89 | 255 | 8.0 | 20.0 | 0.00 | 0.00 | 0.00 | 10 | 1010.8 |
| 20260503234514 | 89 | 267 | 8.0 | 20.0 | 0.00 | 0.00 | 0.00 | 10 | 1010.9 |
| 20260503234029 | 89 | 204 | 8.0 | 16.0 | 0.00 | 0.00 | 0.00 | 10 | 1010.8 |
| 20260503233525 | 90 | 215 | 8.0 | 18.0 | 0.00 | 0.00 | 0.00 | 10 | 1010.5 |
| 20260503233021 | 90 | 233 | 7.0 | 18.0 | 0.00 | 0.00 | 0.00 | 10 | 1010.5 |
| 20260503232517 | 89 | 272 | 10.0 | 19.0 | 0.00 | 0.00 | 0.00 | 10 | 1010.4 |
| 20260503232033 | 90 | 281 | 9.0 | 20.0 | 0.00 | 0.00 | 0.00 | 10 | 1010.5 |